Regional Weather Roundup
Issued by NWS

Home | Current Version | Previous Version | Graphics & Text | Print | Product List | Glossary On
Versions: 1 2 3 4 5 6 7 8 9 10 11 12 13 14 15 16 17 18 19 20 21 22 23 24 25 26 27 28 29 30 31 32 33 34 35 36 37 38 39 40 41 42 43 44 45 46 47 48 49 50
000
ASUS43 KTOP 020008
RWRKS

WEATHER ROUNDUP FOR KANSAS
NATIONAL WEATHER SERVICE GOODLAND KS
700 PM CDT WED JUL 01 2015

NOTE:  "FAIR" INDICATES FEW OR NO CLOUDS BELOW 12,000 FEET WITH NO
SIGNIFICANT WEATHER AND/OR OBSTRUCTIONS TO VISIBILITY.

KSZ001>006-013>018-027>032-041>047-020100-
NORTHWEST KANSAS

CITY           SKY/WX    TMP DP  RH WIND       PRES   REMARKS
GOODLAND       SUNNY     92  49  22 NE8       29.96F
6HR MIN TEMP:  92; 6HR MAX TEMP:  96;

HAYS           SUNNY     97  55  24 NE10G21   29.85R HX  95
HILL CITY      SUNNY     97  52  21 NE15      29.88S
6HR MIN TEMP:  92; 6HR MAX TEMP: 100; 6HR PCP: TRACE;

RUSSELL        SUNNY     96  58  27 N10       29.82R HX  95
6HR MIN TEMP:  95; 6HR MAX TEMP:  99;

$$

KSZ061>065-074>080-084>089-020100-
SOUTHWEST KANSAS

CITY           SKY/WX    TMP DP  RH WIND       PRES   REMARKS
DODGE CITY     SUNNY     95  54  25 NE15      29.87S
6HR MIN TEMP:  94; 6HR MAX TEMP:  98;

ELKHART          N/A     96  56  26 E15         N/A
GARDEN CITY    SUNNY     95  53  24 NE14G21   29.89S
6HR MIN TEMP:  94; 6HR MAX TEMP:  98;

GREAT BEND     SUNNY     95  61  31 NE9       29.83R HX  95
LIBERAL        MOSUNNY   97  55  24 NE10      29.90S HX  95
PRATT          SUNNY     95  55  26 N14       29.84R
$$

KSZ066>073-081>083-090>101-020100-
SOUTHEAST KANSAS

CITY           SKY/WX    TMP DP  RH WIND       PRES   REMARKS
CHANUTE        PTSUNNY   88  73  61 S16G29    29.78S HX  95
6HR MIN TEMP:  83; 6HR MAX TEMP:  88; 6HR PCP: TRACE;

COFFEYVILLE    CLOUDY    87  74  64 S14G22    29.78F HX  95
6HR MIN TEMP:  85; 6HR MAX TEMP:  93; 6HR PCP: TRACE;

HUTCHINSON     SUNNY     96  63  33 NW10      29.78S HX  97
6HR MIN TEMP:  90; 6HR MAX TEMP:  99; 6HR PCP: TRACE;

MEDICINE LODGE   N/A     99  58  25 N12       29.76S HX  98
PARSONS        CLOUDY    86  75  69 S9        29.79F HX  95
6HR MIN TEMP:  85; 6HR MAX TEMP:  90; 6HR PCP: TRACE;

WICHITA INTL   MOSUNNY   97  66  36 N8        29.74F HX 100
6HR MIN TEMP:  90; 6HR MAX TEMP:  98; 6HR PCP: TRACE;

WICHITA JABRA  MOSUNNY   95  64  35 S12       29.75F HX  97
6HR MIN TEMP:  88; 6HR MAX TEMP:  95; 6HR PCP: TRACE;

WICHITA MCCONL PTSUNNY   95  66  39 S12       29.75F HX  98
WINFIELD       PTSUNNY   95  66  38 S17G30    29.76F HX  98
6HR MIN TEMP:  94; 6HR MAX TEMP: 102;

$$

KSZ007>012-019>026-033>040-048>060-102>105-020100-
NORTHEAST KANSAS

CITY           SKY/WX    TMP DP  RH WIND       PRES   REMARKS
CONCORDIA      SUNNY     90  69  50 NE7       29.81S
6HR MIN TEMP:  87; 6HR MAX TEMP:  92;

EMPORIA        SUNNY     91  71  51 S8        29.78S HX  97
6HR MIN TEMP:  82; 6HR MAX TEMP:  92; 6HR PCP: TRACE;

LAWRENCE       SUNNY     87  77  72 E6        29.77F HX  99
6HR MIN TEMP:  84; 6HR MAX TEMP:  90;

MANHATTAN      SUNNY     93  64  38 VRB3      29.77S
6HR MIN TEMP:  91; 6HR MAX TEMP:  96;

MARYSVILLE     PTSUNNY   84  72  65 E9        29.82S
OLATHE IND     SUNNY     87  77  72 S9        29.79F HX  99
6HR MIN TEMP:  80; 6HR MAX TEMP:  87; 6HR PCP: TRACE;

OLATHE EXE     MOSUNNY   85  77  77 SE7       29.79F HX  95
6HR MIN TEMP:  78; 6HR MAX TEMP:  85;

SALINA         SUNNY     96  60  30 NE8       29.78S HX  96
6HR MIN TEMP:  89; 6HR MAX TEMP:  97; 6HR PCP: TRACE;

TOPEKA BILLARD SUNNY     92  71  50 N5        29.77F HX  98
6HR MIN TEMP:  85; 6HR MAX TEMP:  93;

TOPEKA FORBES  SUNNY     92  67  43 W6        29.78F HX  95
6HR MIN TEMP:  86; 6HR MAX TEMP:  95;

$$



USA.gov is the U.S. government's official web portal to all federal, state and local government web resources and services.